N0JVW-13 Weather Reports


time (UTC)temp
C
wind
direction
speed
KPH
gust
KPH
rain 1hr
cm
rain 24hr
cm
rain mn
cm
humidity
%
barometer
mb
20260507162008 16 169 0.0 6.4 0.00 0.00 0.00 58 1015.9
20260507161552 16 311 0.0 6.4 0.00 0.00 0.00 59 1015.8
20260507161025 16 276 0.0 3.2 0.00 0.00 0.00 59 1015.9
20260507160502 16 318 0.0 6.4 0.00 0.00 0.00 58 1016.0
20260507160049 16 323 0.0 6.4 0.00 0.00 0.00 58 1016.0
20260507155518 16 281 0.0 6.4 0.00 0.00 0.00 58 1016.0
20260507155059 16 269 0.0 6.4 0.00 0.00 0.00 57 1016.2
20260507154537 15 271 0.0 4.8 0.00 0.00 0.00 59 1016.2
20260507154012 15 250 0.0 4.8 0.00 0.00 0.00 59 1016.2
20260507153552 15 136 0.0 4.8 0.00 0.00 0.00 60 1016.1
20260507153028 15 212 0.0 4.8 0.00 0.00 0.00 59 1016.2
20260507152504 15 275 0.0 4.8 0.00 0.00 0.00 60 1016.3
20260507152045 15 296 1.6 4.8 0.00 0.00 0.00 63 1016.4
20260507151520 15 306 0.0 4.8 0.00 0.00 0.00 61 1016.4
20260507151101 15 275 1.6 4.8 0.00 0.00 0.00 60 1016.5
20260507150537 15 178 0.0 4.8 0.00 0.00 0.00 61 1016.5
20260507150023 15 278 0.0 4.8 0.00 0.00 0.00 61 1016.5
20260507145556 15 290 0.0 6.4 0.00 0.00 0.00 62 1016.5
20260507145030 15 169 1.6 6.4 0.00 0.00 0.00 64 1016.5
20260507144506 14 119 0.0 4.8 0.00 0.00 0.00 68 1016.6
20260507144047 14 155 0.0 4.8 0.00 0.00 0.00 68 1016.6
20260507143524 14 157 0.0 4.8 0.00 0.00 0.00 66 1016.6
20260507143105 13 238 1.6 9.7 0.00 0.00 0.00 67 1016.5
20260507142540 13 304 0.0 9.7 0.00 0.00 0.00 67 1016.5
20260507142025 13 286 0.0 3.2 0.00 0.00 0.00 67 1016.6
20260507141602 13 286 0.0 4.8 0.00 0.00 0.00 68 1016.6
20260507141032 13 162 0.0 4.8 0.00 0.00 0.00 69 1016.7
20260507140508 13 150 0.0 1.6 0.00 0.00 0.00 68 1016.6
20260507140050 12 266 0.0 4.8 0.00 0.00 0.00 69 1016.6
20260507135525 12 171 0.0 4.8 0.00 0.00 0.00 70 1016.6
20260507135002 12 153 0.0 1.6 0.00 0.00 0.00 70 1016.7
20260507134544 12 275 0.0 0.0 0.00 0.00 0.00 70 1016.7
20260507134018 12 275 0.0 1.6 0.00 0.00 0.00 70 1016.7
20260507133559 12 275 0.0 1.6 0.00 0.00 0.00 70 1016.6
20260507133105 11 275 0.0 1.6 0.00 0.00 0.00 71 1016.7
20260507132516 11 275 0.0 1.6 0.00 0.00 0.00 71 1016.7
20260507132051 11 275 0.0 1.6 0.00 0.00 0.00 72 1016.8
20260507131529 11 275 0.0 1.6 0.00 0.00 0.00 71 1016.9
20260507131004 10 15 0.0 1.6 0.00 0.00 0.00 71 1017.0
20260507130546 10 15 0.0 0.0 0.00 0.00 0.00 72 1017.0
20260507130021 10 14 0.0 1.6 0.00 0.00 0.00 72 1017.1
20260507125601 10 15 0.0 1.6 0.00 0.00 0.00 72 1017.1
20260507125038 9 14 0.0 1.6 0.00 0.00 0.00 73 1017.1
20260507124514 9 14 0.0 1.6 0.00 0.00 0.00 73 1017.1
20260507124057 8 15 0.0 0.0 0.00 0.00 0.00 73 1017.0
20260507123536 8 14 0.0 0.0 0.00 0.00 0.00 74 1017.0
20260507123007 8 15 0.0 0.0 0.00 0.00 0.00 74 1017.0
20260507122549 8 14 0.0 0.0 0.00 0.00 0.00 74 1017.1
20260507122024 7 14 0.0 0.0 0.00 0.00 0.00 75 1017.1
20260507121605 7 14 0.0 0.0 0.00 0.00 0.00 76 1017.1
20260507121040 7 15 0.0 0.0 0.00 0.00 0.00 76 1017.0
20260507120516 7 14 0.0 0.0 0.00 0.00 0.00 77 1017.0
20260507115534 6 14 0.0 0.0 0.00 0.00 0.00 77 1016.9
20260507115010 6 14 0.0 0.0 0.00 0.00 0.00 77 1016.9
20260507114600 6 14 0.0 0.0 0.00 0.00 0.00 77 1016.9
20260507114026 6 14 0.0 0.0 0.00 0.00 0.00 77 1016.8
20260507113501 6 14 0.0 0.0 0.00 0.00 0.00 77 1016.7
20260507113043 6 14 0.0 0.0 0.00 0.00 0.00 77 1016.7
20260507112521 6 14 0.0 0.0 0.00 0.00 0.00 77 1016.7
20260507112102 6 14 0.0 0.0 0.00 0.00 0.00 77 1016.7
20260507111537 6 14 0.0 0.0 0.00 0.00 0.00 77 1016.7
20260507111012 6 14 0.0 0.0 0.00 0.00 0.00 77 1016.7
20260507110558 6 14 0.0 0.0 0.00 0.00 0.00 76 1016.7
20260507110038 6 15 0.0 0.0 0.00 0.00 0.00 76 1016.7
20260507105509 6 14 0.0 0.0 0.00 0.00 0.00 76 1016.7
20260507105049 6 14 0.0 0.0 0.00 0.00 0.00 76 1016.7
20260507104523 6 14 0.0 0.0 0.00 0.00 0.00 76 1016.7
20260507104103 6 14 0.0 0.0 0.00 0.00 0.00 75 1016.7
20260507103539 6 14 0.0 0.0 0.00 0.00 0.00 75 1016.7
20260507103012 6 15 0.0 0.0 0.00 0.00 0.00 75 1016.7
20260507102552 6 14 0.0 0.0 0.00 0.00 0.00 74 1016.7
20260507102028 6 15 0.0 0.0 0.00 0.00 0.00 74 1016.7
20260507101504 6 14 0.0 0.0 0.00 0.00 0.00 74 1016.7
20260507101044 6 14 0.0 0.0 0.00 0.00 0.00 74 1016.8
20260507100521 6 15 0.0 0.0 0.00 0.00 0.00 74 1016.8
20260507095547 6 14 0.0 0.0 0.00 0.00 0.00 74 1016.8
20260507095023 6 14 0.0 0.0 0.00 0.00 0.00 74 1016.9
20260507094603 6 14 0.0 0.0 0.00 0.00 0.00 74 1016.9
20260507094038 6 14 0.0 0.0 0.00 0.00 0.00 74 1016.9
20260507093515 6 14 0.0 0.0 0.00 0.00 0.00 74 1017.0
20260507093052 6 14 0.0 0.0 0.00 0.00 0.00 74 1017.0
20260507092528 6 14 0.0 0.0 0.00 0.00 0.00 74 1017.0
20260507092005 6 14 0.0 0.0 0.00 0.00 0.00 74 1017.0
20260507091545 6 14 0.0 0.0 0.00 0.00 0.00 74 1017.0
20260507091022 6 14 0.0 0.0 0.00 0.00 0.00 74 1017.0
20260507090603 6 14 0.0 0.0 0.00 0.00 0.00 74 1017.0
20260507090042 6 14 0.0 0.0 0.00 0.00 0.00 74 1017.0
20260507085515 6 14 0.0 0.0 0.00 0.00 0.00 74 1017.0
20260507085058 6 14 0.0 0.0 0.00 0.00 0.00 74 1017.0
20260507084538 6 14 0.0 0.0 0.00 0.00 0.00 73 1017.0
20260507084009 6 14 0.0 0.0 0.00 0.00 0.00 73 1017.0
20260507083551 7 15 0.0 0.0 0.00 0.00 0.00 73 1016.9
20260507083026 7 14 0.0 0.0 0.00 0.00 0.00 73 1017.0
20260507082502 7 14 0.0 0.0 0.00 0.00 0.00 73 1017.0
20260507082046 7 14 0.0 0.0 0.00 0.00 0.00 73 1017.0
20260507081520 7 15 0.0 0.0 0.00 0.00 0.00 72 1017.0
20260507081104 7 14 0.0 0.0 0.00 0.00 0.00 72 1016.9
20260507080538 7 14 0.0 0.0 0.00 0.00 0.00 72 1017.0
20260507080014 7 14 0.0 0.0 0.00 0.00 0.00 71 1016.9
20260507075555 7 14 0.0 0.0 0.00 0.00 0.00 71 1017.0
20260507075030 7 14 0.0 0.0 0.00 0.00 0.00 71 1016.9
20260507074507 7 15 0.0 0.0 0.00 0.00 0.00 70 1017.0
20260507074047 7 14 0.0 0.0 0.00 0.00 0.00 70 1017.0
20260507073525 7 14 0.0 0.0 0.00 0.00 0.00 70 1017.1
20260507073110 7 14 0.0 0.0 0.00 0.00 0.00 70 1017.2
20260507072540 7 14 0.0 0.0 0.00 0.00 0.00 70 1017.3
20260507072016 7 14 0.0 0.0 0.00 0.00 0.00 69 1017.3
20260507071556 7 14 0.0 0.0 0.00 0.00 0.00 70 1017.3
20260507071032 7 14 0.0 0.0 0.00 0.03 0.00 69 1017.4
20260507070508 7 14 0.0 0.0 0.00 0.03 0.00 70 1017.4
20260507070057 7 14 0.0 0.0 0.00 0.03 0.00 71 1017.4
20260507065524 7 14 0.0 0.0 0.00 0.03 0.00 71 1017.5
20260507065105 7 14 0.0 0.0 0.00 0.03 0.00 71 1017.5
20260507064547 7 14 0.0 0.0 0.00 0.03 0.00 72 1017.6
20260507064017 7 14 0.0 0.0 0.00 0.03 0.00 73 1017.6
20260507063558 7 14 0.0 0.0 0.00 0.03 0.00 73 1017.6
20260507063036 7 14 0.0 0.0 0.00 0.03 0.00 74 1017.7
20260507062509 7 14 0.0 0.0 0.00 0.03 0.00 75 1017.7
20260507062050 7 14 0.0 0.0 0.00 0.03 0.00 75 1017.6
20260507061526 7 14 0.0 0.0 0.00 0.03 0.00 75 1017.7
20260507061003 7 14 0.0 0.0 0.00 0.03 0.00 76 1017.7
20260507060542 7 15 0.0 0.0 0.00 0.03 0.00 76 1017.7
20260507060019 7 14 0.0 0.0 0.00 0.03 0.00 76 1017.8
20260507055556 7 14 0.0 0.0 0.00 0.03 0.00 76 1017.8
20260507055032 7 14 0.0 0.0 0.00 0.03 0.00 76 1017.8
20260507054508 7 14 0.0 0.0 0.00 0.03 0.00 76 1017.7
20260507054045 7 14 0.0 0.0 0.00 0.03 0.00 76 1017.8
20260507053522 7 15 0.0 0.0 0.00 0.03 0.00 76 1017.8
20260507053126 7 14 0.0 0.0 0.00 0.03 0.00 76 1017.8
20260507052540 7 14 0.0 0.0 0.00 0.03 0.00 76 1017.7
20260507052013 7 14 0.0 0.0 0.00 0.03 0.00 76 1017.8
20260507051554 7 15 0.0 0.0 0.00 0.03 0.00 76 1017.8
20260507051029 7 14 0.0 0.0 0.00 0.03 0.03 76 1017.8
20260507050505 7 14 0.0 0.0 0.00 0.03 0.03 76 1017.8
20260507050046 7 14 0.0 0.0 0.00 0.03 0.03 76 1017.8
20260507045523 7 14 0.0 0.0 0.00 0.03 0.03 76 1017.8
20260507045103 7 15 0.0 0.0 0.00 0.03 0.03 76 1017.8
20260507044555 7 14 0.0 0.0 0.00 0.03 0.03 75 1017.7
20260507044015 7 14 0.0 0.0 0.00 0.03 0.03 75 1017.7
20260507043555 7 14 0.0 0.0 0.00 0.03 0.03 75 1017.7
20260507043032 7 14 0.0 0.0 0.00 0.03 0.03 75 1017.8
20260507042508 7 14 0.0 0.0 0.00 0.03 0.03 75 1017.7
20260507042049 7 14 0.0 0.0 0.00 0.03 0.03 75 1017.9
20260507041526 7 14 0.0 0.0 0.00 0.03 0.03 75 1017.9
20260507041001 7 14 0.0 0.0 0.00 0.03 0.03 75 1018.1
20260507040542 8 15 0.0 0.0 0.00 0.03 0.03 75 1018.2
20260507040018 8 14 0.0 0.0 0.00 0.03 0.03 74 1018.1
20260507035559 8 15 0.0 0.0 0.00 0.03 0.03 74 1018.1
20260507035035 8 14 0.0 0.0 0.00 0.03 0.03 74 1018.0
20260507034510 8 14 0.0 0.0 0.00 0.03 0.03 73 1017.9
20260507034052 8 15 0.0 0.0 0.00 0.03 0.03 72 1017.9
20260507033529 8 14 0.0 0.0 0.00 0.03 0.03 71 1017.9
20260507033004 8 15 0.0 0.0 0.00 0.03 0.03 71 1017.9
20260507032545 8 14 0.0 0.0 0.00 0.03 0.03 70 1017.9
20260507032024 8 14 0.0 0.0 0.00 0.03 0.03 70 1017.9
20260507031604 8 14 0.0 0.0 0.00 0.03 0.03 68 1017.9
20260507031039 8 14 0.0 0.0 0.00 0.03 0.03 67 1017.9
20260507030513 8 15 0.0 0.0 0.00 0.03 0.03 66 1017.9
20260507030107 8 14 0.0 0.0 0.00 0.03 0.03 65 1017.9
20260507025530 8 15 0.0 0.0 0.00 0.03 0.03 64 1017.8
20260507025005 8 15 0.0 0.0 0.00 0.03 0.03 62 1017.9
20260507024605 9 14 0.0 0.0 0.00 0.03 0.03 62 1017.8
20260507024022 9 14 0.0 0.0 0.00 0.03 0.03 61 1017.8
20260507023605 9 14 0.0 0.0 0.00 0.03 0.03 60 1017.7
20260507023039 9 14 0.0 0.0 0.00 0.03 0.03 59 1017.7
20260507022515 10 15 0.0 0.0 0.00 0.03 0.03 59 1017.7
20260507022056 10 14 0.0 0.0 0.00 0.03 0.03 58 1017.6
20260507021536 10 14 0.0 0.0 0.00 0.03 0.03 57 1017.6
20260507021009 10 15 0.0 0.0 0.00 0.03 0.03 56 1017.6
20260507020550 10 15 0.0 0.0 0.00 0.03 0.03 57 1017.6
20260507020026 10 15 0.0 0.0 0.00 0.03 0.03 56 1017.6
20260507015605 10 15 0.0 0.0 0.00 0.03 0.03 55 1017.5
20260507015046 11 14 0.0 0.0 0.00 0.03 0.03 54 1017.5
20260507014521 11 14 0.0 0.0 0.00 0.03 0.03 52 1017.4
20260507014100 11 14 0.0 0.0 0.00 0.03 0.03 52 1017.4
20260507013539 11 14 0.0 0.0 0.00 0.03 0.03 52 1017.3
20260507013011 11 14 0.0 0.0 0.00 0.03 0.03 50 1017.2
20260507012551 12 14 0.0 0.0 0.00 0.03 0.03 48 1017.2
20260507012028 12 14 0.0 0.0 0.00 0.03 0.03 48 1017.2
20260507011513 12 15 0.0 0.0 0.00 0.03 0.03 48 1017.1
20260507011045 12 14 0.0 0.0 0.00 0.03 0.03 47 1017.0
20260507010521 13 14 0.0 0.0 0.00 0.03 0.03 47 1017.1
20260507005537 13 14 0.0 4.8 0.00 0.03 0.03 43 1017.0
20260507005019 13 38 0.0 3.2 0.00 0.03 0.03 42 1017.0
20260507004555 13 359 0.0 6.4 0.00 0.03 0.03 42 1017.0
20260507004031 13 359 0.0 6.4 0.00 0.03 0.03 41 1017.0
20260507003507 13 51 0.0 4.8 0.00 0.03 0.03 42 1016.9
20260507003048 13 57 0.0 4.8 0.00 0.03 0.03 41 1016.9
20260507002525 13 336 0.0 8.0 0.00 0.03 0.03 40 1016.9
20260507002001 13 349 3.2 11.3 0.00 0.03 0.03 41 1016.8
20260507001541 13 17 3.2 11.3 0.00 0.03 0.03 41 1016.9
20260507001017 13 30 3.2 9.7 0.00 0.03 0.03 41 1016.9
20260507000601 13 33 3.2 6.4 0.00 0.03 0.03 41 1017.0
20260507000035 13 313 0.0 4.8 0.00 0.03 0.03 41 1016.9
20260506235513 14 326 0.0 3.2 0.00 0.03 0.03 42 1017.1
20260506235051 14 326 0.0 8.0 0.00 0.03 0.03 43 1017.1
20260506234527 14 37 1.6 9.7 0.00 0.03 0.03 42 1017.0
20260506234003 14 293 0.0 4.8 0.00 0.03 0.03 41 1017.0
20260506233544 14 342 0.0 11.3 0.00 0.03 0.03 41 1017.0
20260506233020 14 37 1.6 11.3 0.00 0.03 0.03 41 1016.8
20260506232601 14 357 0.0 9.7 0.00 0.03 0.03 42 1016.8
20260506232037 14 356 4.8 12.9 0.00 0.03 0.03 41 1016.8
20260506231514 14 34 0.0 12.9 0.00 0.03 0.03 43 1016.9
20260506231056 14 344 3.2 14.5 0.00 0.03 0.03 41 1016.8
20260506230533 14 321 3.2 14.5 0.00 0.03 0.03 41 1016.8
20260506230008 14 44 0.0 11.3 0.00 0.03 0.03 40 1016.9
20260506225548 14 12 1.6 9.7 0.00 0.03 0.03 41 1016.8
20260506225027 14 338 0.0 8.0 0.00 0.03 0.03 42 1016.9
20260506224610 14 3 1.6 8.0 0.00 0.03 0.03 42 1016.9
20260506224041 14 7 0.0 11.3 0.00 0.03 0.03 43 1016.9
20260506223518 14 360 3.2 11.3 0.00 0.03 0.03 41 1016.9
20260506223100 14 345 1.6 9.7 0.00 0.03 0.03 42 1016.9
20260506222535 14 354 3.2 14.5 0.00 0.03 0.03 42 1017.0
20260506222013 15 34 4.8 14.5 0.00 0.03 0.03 42 1017.0
20260506221554 15 319 0.0 4.8 0.00 0.03 0.03 43 1017.0
20260506221029 15 319 0.0 4.8 0.00 0.03 0.03 41 1017.2
20260506220507 15 321 1.6 12.9 0.00 0.03 0.03 40 1017.1
20260506220051 15 13 3.2 12.9 0.00 0.03 0.03 45 1017.2
20260506215521 15 36 0.0 4.8 0.00 0.03 0.03 44 1017.2
20260506215101 15 36 0.0 16.1 0.00 0.03 0.03 43 1017.2
20260506214537 14 293 1.6 16.1 0.00 0.03 0.03 42 1017.3
20260506214018 14 47 0.0 11.3 0.00 0.03 0.03 42 1017.3
20260506213554 14 37 1.6 6.4 0.00 0.03 0.03 45 1017.3
20260506213032 14 30 1.6 9.7 0.00 0.03 0.03 43 1017.2
20260506212506 14 342 0.0 6.4 0.00 0.03 0.03 45 1017.3
20260506212047 14 348 0.0 14.5 0.00 0.03 0.03 43 1017.5
20260506211525 14 310 3.2 14.5 0.00 0.03 0.03 44 1017.6
20260506211104 14 10 3.2 9.7 0.00 0.03 0.03 44 1017.7
20260506210540 14 37 3.2 8.0 0.00 0.03 0.03 44 1017.7
20260506210012 14 321 1.6 9.7 0.00 0.03 0.03 43 1017.8
20260506205546 13 329 3.2 9.7 0.00 0.03 0.03 44 1017.8
20260506205022 13 18 0.0 6.4 0.00 0.03 0.03 44 1017.9
20260506204604 13 333 1.6 16.1 0.00 0.03 0.03 42 1018.0
20260506204040 13 319 4.8 16.1 0.00 0.03 0.03 45 1018.1
20260506203515 13 340 0.0 14.5 0.00 0.03 0.03 43 1018.1
20260506203057 13 20 3.2 16.1 0.00 0.03 0.03 45 1018.1
20260506202532 13 18 6.4 16.1 0.00 0.03 0.03 47 1018.2
20260506202008 13 39 3.2 11.3 0.00 0.03 0.03 45 1018.2
20260506201550 13 320 0.0 8.0 0.00 0.03 0.03 47 1018.3
20260506201025 13 326 1.6 9.7 0.00 0.05 0.03 44 1018.3
20260506200502 13 35 4.8 9.7 0.00 0.05 0.03 45 1018.4
20260506200042 13 319 1.6 6.4 0.00 0.05 0.03 44 1018.4
20260506195520 13 328 1.6 6.4 0.00 0.05 0.03 44 1018.4
20260506195058 13 344 3.2 14.5 0.00 0.05 0.03 45 1018.4
20260506194535 13 329 4.8 14.5 0.00 0.05 0.03 45 1018.5
20260506194013 13 340 4.8 14.5 0.00 0.05 0.03 45 1018.5
20260506193555 13 58 3.2 14.5 0.00 0.05 0.03 47 1018.5
20260506193028 13 303 0.0 11.3 0.00 0.05 0.03 48 1018.6
20260506192503 13 352 1.6 14.5 0.00 0.05 0.03 46 1018.6
20260506192044 13 17 3.2 14.5 0.00 0.05 0.03 50 1018.7
20260506191522 13 14 4.8 14.5 0.00 0.05 0.03 50 1018.7
20260506191101 13 121 0.0 12.9 0.00 0.05 0.03 48 1018.6
20260506190539 13 26 3.2 12.9 0.00 0.05 0.03 51 1018.7
20260506190015 13 25 0.0 6.4 0.00 0.05 0.03 48 1018.8
20260506185555 13 288 1.6 8.0 0.00 0.05 0.03 47 1018.7
20260506185030 13 345 1.6 8.0 0.00 0.05 0.03 52 1018.8
20260506184508 12 337 3.2 8.0 0.00 0.05 0.03 52 1019.0
20260506184047 12 316 0.0 4.8 0.00 0.05 0.03 50 1018.9
20260506183524 12 37 0.0 8.0 0.00 0.05 0.03 52 1018.9
20260506183105 12 327 0.0 8.0 0.00 0.05 0.03 50 1018.9
20260506182539 12 38 3.2 8.0 0.00 0.05 0.03 51 1018.9
20260506182015 12 359 3.2 8.0 0.00 0.05 0.03 54 1019.0
20260506181558 12 353 0.0 8.0 0.00 0.05 0.03 53 1019.2
20260506181032 12 360 1.6 6.4 0.00 0.08 0.03 51 1019.2
20260506180509 12 339 1.6 6.4 0.00 0.08 0.03 52 1019.2
20260506180049 12 27 0.0 4.8 0.00 0.08 0.03 54 1019.3
20260506175524 12 293 0.0 4.8 0.00 0.08 0.03 52 1019.2
20260506175105 12 316 0.0 4.8 0.00 0.08 0.03 50 1019.3
20260506174542 12 23 0.0 9.7 0.00 0.08 0.03 54 1019.4
20260506174018 12 6 3.2 9.7 0.00 0.08 0.03 54 1019.4
20260506173559 12 18 0.0 9.7 0.00 0.08 0.03 54 1019.4
20260506173047 12 30 1.6 11.3 0.00 0.08 0.03 53 1019.4
20260506172510 12 342 6.4 9.7 0.00 0.08 0.03 55 1019.4
20260506172053 12 26 1.6 11.3 0.00 0.08 0.03 56 1019.4
20260506171528 12 285 1.6 14.5 0.00 0.08 0.03 54 1019.4
20260506171004 12 309 1.6 14.5 0.00 0.23 0.03 56 1019.4
20260506170546 12 357 1.6 6.4 0.00 0.23 0.03 57 1019.3
20260506170021 12 318 0.0 6.4 0.00 0.23 0.03 56 1019.1
20260506165603 12 318 1.6 9.7 0.00 0.23 0.03 57 1019.1
20260506165038 12 32 1.6 11.3 0.00 0.23 0.03 58 1019.2
20260506164514 12 342 3.2 14.5 0.00 0.23 0.03 59 1019.2
20260506164054 12 321 1.6 14.5 0.00 0.23 0.03 59 1019.2
20260506163534 12 341 0.0 8.0 0.00 0.23 0.03 61 1019.1
20260506163005 12 30 0.0 14.5 0.00 0.23 0.03 59 1019.0
20260506162547 12 328 6.4 14.5 0.00 0.23 0.03 61 1019.0